Weather History for Sault Ste Marie, MI

Change the Weather History Date:

Monday, October 15, 2012

  Actual Average Record
Temperature  
Mean Temperature 43 °F 46 °F  
Max Temperature 47 °F 54 °F 80 °F (1968)
Min Temperature 39 °F 38 °F 21 °F (1980)
Degree Days  
Heating Degree Days 22 19  
Month to date heating degree days 289 248  
Since 1 July heating degree days 617 649  
Cooling Degree Days 0 0  
Month to date cooling degree days 0 0  
Year to date cooling degree days 402 195  
Moisture  
Dew Point 33 °F    
Average Humidity 72    
Maximum Humidity 86    
Minimum Humidity 57    
Precipitation  
Precipitation 0.16 in 0.12 in 1.11 in (1966)
Month to date precipitation 3.53 1.91  
Year to date precipitation 22.51 24.90  
Snow  
Snow 0.00 in 0.10 in 0.30 in (1991)
Month to date snowfall 5.0 0.3  
Since 1 July snowfall 5.0 0.3  
Snow Depth 0.00 in    
Sea Level Pressure  
Sea Level Pressure 29.67 in    
Wind  
Wind Speed 11 mph (NNW)    
Max Wind Speed 21 mph    
Max Gust Speed 29 mph    
Visibility 10 miles    
Events Rain    
T = Trace of Precipitation, MM = Missing Value Source: NWS Daily Summary

Daily Weather History Graph

Daily Weather History Graph

Search for Another Location

Airport:

Trip Planner

Search our weather history database for the weather conditions in past years. The results will help you decide how hot, cold, wet, or windy it might be!

Date:

Astronomy

Oct. 15, 2012 Rise Set
Actual Time 7:55 AM EDT 6:49 PM EDT
Civil Twilight 7:25 AM EDT 7:20 PM EDT
Nautical Twilight 6:50 AM EDT 7:55 PM EDT
Astronomical Twilight 6:15 AM EDT 8:29 PM EDT
Moon 8:08 AM EDT (10/15) 6:43 PM EDT (10/15)
Length of Visible Light 11h 55m
Length of Day
10h 54m
New Moon, 0% of the Moon is Illuminated
Oct 15
New Moon
Oct 21
First Quarter
Oct 29
Full
Nov 6
Last Quarter
Nov 13
New

Hourly Weather History & Observations

Time (EDT) Temp. Windchill Dew Point Humidity Pressure Visibility Wind Dir Wind Speed Gust Speed Precip Events Conditions
12:55 AM 41.0 °F 34.7 °F 37.0 °F 86% 29.38 in 9.0 mi North 10.4 mph 20.7 mph 0.07 in Rain Light Rain
1:55 AM 41.0 °F 34.7 °F 36.0 °F 82% 29.39 in 9.0 mi North 10.4 mph 21.9 mph 0.05 in Rain Light Rain
2:55 AM 39.9 °F 32.1 °F 35.1 °F 83% 29.42 in 6.0 mi North 13.8 mph 21.9 mph 0.05 in Rain Rain
3:55 AM 39.9 °F 32.1 °F 35.1 °F 83% 29.44 in 10.0 mi NNW 13.8 mph 19.6 mph 0.03 in Rain Light Rain
4:17 AM 39.9 °F 32.9 °F 35.1 °F 83% 29.44 in 9.0 mi North 11.5 mph 28.8 mph 0.01 in Rain Light Rain
4:55 AM 41.0 °F 35.2 °F 35.1 °F 79% 29.47 in 10.0 mi NNW 9.2 mph 25.3 mph 0.01 in Rain Light Rain
5:22 AM 39.9 °F 32.9 °F 35.1 °F 83% 29.47 in 10.0 mi NNW 11.5 mph 19.6 mph 0.00 in Rain Light Rain
5:48 AM 39.9 °F 32.1 °F 35.1 °F 83% 29.49 in 10.0 mi NNW 13.8 mph 24.2 mph 0.01 in Rain Light Rain
5:55 AM 39.9 °F 31.8 °F 35.1 °F 83% 29.50 in 10.0 mi NNW 15.0 mph 24.2 mph 0.01 in Rain Light Rain
6:55 AM 39.9 °F 32.1 °F 34.0 °F 79% 29.54 in 10.0 mi NNW 13.8 mph 24.2 mph 0.00 in Rain Light Rain
7:55 AM 39.9 °F 33.4 °F 34.0 °F 79% 29.57 in 10.0 mi NNW 10.4 mph 23.0 mph 0.00 in Rain Light Rain
8:48 AM 39.9 °F 32.5 °F 35.1 °F 83% 29.59 in 10.0 mi NW 12.7 mph 20.7 mph 0.01 in Rain Light Rain
8:55 AM 39.9 °F 32.9 °F 35.1 °F 83% 29.60 in 10.0 mi NW 11.5 mph 19.6 mph 0.01 in Rain Light Rain
9:55 AM 42.1 °F 34.5 °F 35.1 °F 76% 29.64 in 10.0 mi NW 15.0 mph 25.3 mph 0.00 in   Overcast
10:55 AM 43.0 °F 35.7 °F 34.0 °F 71% 29.68 in 10.0 mi NNW 15.0 mph 24.2 mph N/A   Overcast
11:55 AM 43.0 °F 35.4 °F 35.1 °F 74% 29.70 in 10.0 mi NW 16.1 mph 26.5 mph N/A   Overcast
12:55 PM 44.1 °F 37.4 °F 34.0 °F 68% 29.72 in 10.0 mi NW 13.8 mph 21.9 mph N/A   Overcast
1:03 PM 44.6 °F 38.8 °F 35.6 °F 71% 29.71 in 10.0 mi NW 11.5 mph 20.7 mph N/A   Overcast
1:25 PM 45.0 °F 39.3 °F 34.0 °F 65% 29.72 in 10.0 mi NW 11.5 mph 24.2 mph N/A   Overcast
1:32 PM 45.0 °F 38.9 °F 34.0 °F 65% 29.72 in 10.0 mi NW 12.7 mph 24.2 mph N/A   Overcast
1:44 PM 44.1 °F 36.8 °F 34.0 °F 68% 29.72 in 10.0 mi NW 16.1 mph 23.0 mph N/A   Overcast
1:55 PM 45.0 °F 38.2 °F 35.1 °F 68% 29.73 in 10.0 mi NW 15.0 mph 24.2 mph N/A   Overcast
2:51 PM 46.4 °F 40.7 °F 33.8 °F 62% 29.73 in 10.0 mi NW 12.7 mph 20.7 mph N/A   Mostly Cloudy
2:55 PM 46.9 °F - 34.0 °F 61% 29.75 in 10.0 mi NW 13.8 mph 19.6 mph N/A   Mostly Cloudy
3:55 PM 45.0 °F 38.9 °F 33.1 °F 63% 29.77 in 10.0 mi NW 12.7 mph 21.9 mph N/A   Overcast
4:55 PM 45.0 °F 38.9 °F 32.0 °F 60% 29.80 in 10.0 mi NW 12.7 mph - N/A   Mostly Cloudy
5:55 PM 44.1 °F 37.7 °F 30.0 °F 58% 29.83 in 10.0 mi NW 12.7 mph 21.9 mph N/A   Scattered Clouds
6:55 PM 43.0 °F 38.8 °F 30.0 °F 60% 29.85 in 10.0 mi NW 6.9 mph 18.4 mph N/A   Mostly Cloudy
7:55 PM 43.0 °F 40.3 °F 28.9 °F 58% 29.86 in 10.0 mi North 4.6 mph - N/A   Overcast
8:55 PM 43.0 °F 40.3 °F 28.9 °F 58% 29.86 in 10.0 mi NNE 4.6 mph - N/A   Overcast
9:55 PM 42.1 °F 39.2 °F 28.0 °F 58% 29.88 in 10.0 mi NE 4.6 mph - N/A   Overcast
10:55 PM 41.0 °F - 28.0 °F 60% 29.90 in 10.0 mi Calm Calm - N/A   Overcast
11:55 PM 39.9 °F 37.8 °F 28.9 °F 65% 29.90 in 10.0 mi SSE 3.5 mph - N/A   Overcast